C/2016 E1 ( PanSTARRS )

Japanese version
Home page
Updated on August 9, 2016

---------------------------------------------------------------------

* Profile

Discovery Date March 3, 2016
Magnitude 21.1 mag
Discoverer Pan-STARRS 1 telescope (Haleakala)

* Pictures

* Orbital Elements

Epoch 2017 June 16.0 TT = JDT 2457920.5
T 2017 June 1.30874 TT                                  MPCW
q   8.1770545            (2000.0)            P               Q
z  -0.0003940      Peri.   47.30264     -0.79987841     +0.08012756
 +/-0.0000358      Node   233.03639     -0.44400477     +0.58778920
e   1.0032218      Incl.  131.89237     +0.40379982     +0.80503629
From 44 observations 2016 Mar. 3-May 31, mean residual 0".3.

* Magnitudes Graph

        m1 = 6.0 + 5 log d + 10.0 log r

---------------------------------------------------------------------

The orbital elements are published on M.P.E.C. 2016-N16.
The magnitudes graphs are made with Comet for Windows.

---------------------------------------------------------------------

Copyright(C) Seiichi Yoshida (comet@aerith.net). All rights reserved.